Date String (YYYY-MM-DD hh:mm:ss) UTC,Instrument flags,absolute air pressure of the measurement (hPa),sample flow rate (lpm),inlet stack bypass flow (lpm),air temperature of the measurement (°C),ambient temperature measured by the external sensor (°C),aerosol sample conditioner tube jacket temperature (°C),OPC LED temperature (°C),internal box temperature (°C),relative humidity of the measurement (%),span deviation,mass concentration of particles derived from Lorenz-Mie calculation of OPC scattering (μg/m³),mass concentration of particles derived from Lorenz-Mie calculation of OPC scattering (μg/m³),mass concentration of particles derived from Lorenz-Mie calculation of OPC scattering (μg/m³)
DateTimeUTC,F1_M11,P_M11,Q1_M11,Q2_M11,T1_M11,T2_M11,T3_M11,T4_M11,T5_M11,U1_M11,ZSPAN_M11,X0_M11,X2_M11,X1_M11
2024-03-01 23:00:00,SystemResetWarning,0821.8,5.00,000.00,026.0,025.2,000.0,034.3,027.8,08.8,0000.0,0005.67,0002.28,0001.13
2024-03-01 23:01:00,SystemResetWarning,0822.0,4.99,000.00,026.0,025.2,000.0,034.3,027.8,08.6,0000.0,0005.54,0002.27,0001.15
2024-03-01 23:02:00,SystemResetWarning,0821.9,5.00,000.00,026.0,025.2,000.0,034.3,027.8,08.6,0000.0,0006.59,0002.28,0001.16
2024-03-01 23:03:00,SystemResetWarning,0821.9,5.00,000.00,026.0,025.2,000.0,034.3,027.8,08.5,0000.0,0006.61,0002.29,0001.17
2024-03-01 23:04:00,SystemResetWarning,0821.9,5.00,000.00,026.1,025.2,000.0,034.3,027.8,08.6,0000.0,0006.60,0002.28,0001.18
2024-03-01 23:05:00,SystemResetWarning,0821.9,5.01,000.00,026.1,025.2,000.0,034.3,027.8,08.5,0000.0,0007.05,0002.22,0001.19
2024-03-01 23:06:00,SystemResetWarning,0821.4,5.00,000.00,026.1,025.2,000.0,034.3,027.8,08.6,0000.0,0007.42,0002.34,0001.20
2024-03-01 23:07:00,SystemResetWarning,0821.5,5.00,000.00,026.1,025.2,000.0,034.3,027.8,08.6,0000.0,0007.94,0002.43,0001.21
2024-03-01 23:08:00,SystemResetWarning,0821.7,5.00,000.00,026.1,025.2,000.0,034.3,027.8,08.5,0000.0,0008.02,0002.51,0001.23
2024-03-01 23:09:00,SystemResetWarning,0821.8,5.00,000.00,026.0,025.2,000.0,034.3,027.8,08.2,0000.0,0008.05,0002.46,0001.22
2024-03-01 23:10:00,SystemResetWarning,0821.7,5.00,000.00,026.0,025.2,000.0,034.3,027.8,08.5,0000.0,0008.06,0002.40,0001.21
2024-03-01 23:11:00,SystemResetWarning,0821.8,5.00,000.00,026.0,025.2,000.0,034.4,027.8,08.7,0000.0,0008.00,0002.39,0001.20
2024-03-01 23:12:00,SystemResetWarning,0821.7,4.99,000.00,026.1,025.2,000.0,034.4,027.8,08.6,0000.0,0007.99,0002.40,0001.19
2024-03-01 23:13:00,SystemResetWarning,0821.6,5.01,000.00,026.0,025.2,000.0,034.4,027.8,08.5,0000.0,0007.37,0002.36,0001.19
2024-03-01 23:14:00,SystemResetWarning,0821.5,5.01,000.00,026.0,025.2,000.0,034.4,027.8,08.7,0000.0,0006.69,0002.36,0001.19
2024-03-01 23:15:00,SystemResetWarning,0821.4,5.00,000.00,026.0,025.2,000.0,034.4,027.9,08.7,0000.0,0007.25,0002.32,0001.19
2024-03-01 23:16:00,SystemResetWarning,0821.3,4.98,000.00,026.1,025.2,000.0,034.4,027.9,08.8,0000.0,0007.20,0002.31,0001.18
2024-03-01 23:17:00,SystemResetWarning,0821.4,5.00,000.00,026.1,025.2,000.0,034.4,027.9,08.8,0000.0,0007.19,0002.22,0001.17
2024-03-01 23:18:00,SystemResetWarning,0821.4,5.01,000.00,026.1,025.2,000.0,034.4,027.9,08.6,0000.0,0007.41,0002.19,0001.16
2024-03-01 23:19:00,SystemResetWarning,0821.3,4.99,000.00,026.1,025.2,000.0,034.4,027.8,08.6,0000.0,0007.34,0002.13,0001.16
2024-03-01 23:20:00,SystemResetWarning,0821.3,5.01,000.00,026.0,025.2,000.0,034.4,027.8,08.6,0000.0,0007.35,0002.13,0001.16
2024-03-01 23:21:00,SystemResetWarning,0821.3,5.01,000.00,026.0,025.2,000.0,034.4,027.8,08.5,0000.0,0007.24,0002.14,0001.16
2024-03-01 23:22:00,SystemResetWarning,0821.4,5.01,000.00,026.0,025.2,000.0,034.4,027.8,08.5,0000.0,0007.22,0002.13,0001.17
2024-03-01 23:23:00,SystemResetWarning,0821.3,4.99,000.00,026.1,025.2,000.0,034.4,027.9,08.5,0000.0,0007.02,0002.05,0001.15
2024-03-01 23:24:00,SystemResetWarning,0821.3,4.99,000.00,026.1,025.2,000.0,034.4,027.9,08.5,0000.0,0007.06,0002.04,0001.15
2024-03-01 23:25:00,SystemResetWarning,0821.3,5.00,000.00,026.1,025.2,000.0,034.4,027.9,08.3,0000.0,0007.22,0002.09,0001.15
2024-03-01 23:26:00,SystemResetWarning,0821.3,5.01,000.00,026.1,025.2,000.0,034.5,027.8,08.3,0000.0,0007.37,0002.13,0001.14
2024-03-01 23:27:00,SystemResetWarning,0821.3,5.01,000.00,026.1,025.2,000.0,034.5,027.9,08.4,0000.0,0006.92,0002.13,0001.14
2024-03-01 23:28:00,SystemResetWarning,0821.2,4.99,000.00,026.1,025.2,000.0,034.5,027.9,08.0,0000.0,0007.29,0002.21,0001.16
2024-03-01 23:29:00,SystemResetWarning,0821.2,4.99,000.00,026.1,025.2,000.0,034.5,027.9,08.0,0000.0,0006.24,0002.22,0001.17
2024-03-01 23:30:00,SystemResetWarning,0821.1,5.00,000.00,026.1,025.2,000.0,034.5,027.9,08.1,0000.0,0006.19,0002.26,0001.18
2024-03-01 23:31:00,SystemResetWarning,0821.1,5.00,000.00,026.1,025.3,000.0,034.5,027.9,08.1,0000.0,0006.04,0002.26,0001.18
2024-03-01 23:32:00,SystemResetWarning,0821.2,5.00,000.00,026.1,025.3,000.0,034.5,027.9,08.2,0000.0,0006.37,0002.27,0001.18
2024-03-01 23:33:00,SystemResetWarning,0821.2,5.02,000.00,026.1,025.3,000.0,034.5,027.9,08.2,0000.0,0007.46,0002.30,0001.19
2024-03-01 23:34:00,SystemResetWarning,0821.2,5.00,000.00,026.1,025.3,000.0,034.5,027.9,08.0,0000.0,0007.55,0002.35,0001.19
2024-03-01 23:35:00,SystemResetWarning,0821.2,4.99,000.00,026.1,025.3,000.0,034.5,027.9,08.2,0000.0,0007.59,0002.39,0001.19
2024-03-01 23:36:00,SystemResetWarning,0821.2,5.00,000.00,026.1,025.3,000.0,034.5,027.9,08.1,0000.0,0007.50,0002.35,0001.20
2024-03-01 23:37:00,SystemResetWarning,0821.2,5.01,000.00,026.1,025.3,000.0,034.5,027.9,08.0,0000.0,0007.06,0002.31,0001.20
2024-03-01 23:38:00,SystemResetWarning,0821.2,5.01,000.00,026.1,025.3,000.0,034.5,027.9,08.1,0000.0,0007.15,0002.33,0001.22
2024-03-01 23:39:00,SystemResetWarning,0821.3,5.01,000.00,026.1,025.3,000.0,034.5,028.0,07.9,0000.0,0006.59,0002.28,0001.21
2024-03-01 23:40:00,SystemResetWarning,0821.3,5.01,000.00,026.1,025.3,000.0,034.5,027.9,08.1,0000.0,0006.37,0002.25,0001.20
2024-03-01 23:41:00,SystemResetWarning,0821.2,4.99,000.00,026.1,025.3,000.0,034.5,027.9,08.3,0000.0,0006.58,0002.23,0001.19
2024-03-01 23:42:00,SystemResetWarning,0821.3,4.99,000.00,026.1,025.3,000.0,034.5,027.9,08.2,0000.0,0007.01,0002.18,0001.18
2024-03-01 23:43:00,SystemResetWarning,0821.2,5.00,000.00,026.1,025.3,000.0,034.5,027.9,07.9,0000.0,0007.48,0002.13,0001.17
2024-03-01 23:44:00,SystemResetWarning,0821.2,5.01,000.00,026.1,025.3,000.0,034.5,027.9,07.9,0000.0,0007.00,0002.15,0001.16
2024-03-01 23:45:00,SystemResetWarning,0821.3,5.01,000.00,026.1,025.3,000.0,034.5,027.9,08.2,0000.0,0006.79,0002.11,0001.15
2024-03-01 23:46:00,SystemResetWarning,0821.3,4.99,000.00,026.1,025.3,000.0,034.5,027.9,08.2,0000.0,0006.77,0002.11,0001.14
2024-03-01 23:47:00,SystemResetWarning,0821.3,4.99,000.00,026.1,025.2,000.0,034.5,027.9,08.1,0000.0,0006.76,0002.11,0001.13
2024-03-01 23:48:00,SystemResetWarning,0821.2,5.01,000.00,026.1,025.2,000.0,034.5,027.9,08.3,0000.0,0006.53,0002.13,0001.12
2024-03-01 23:49:00,SystemResetWarning,0821.2,5.00,000.00,026.1,025.2,000.0,034.5,027.9,08.4,0000.0,0006.58,0002.18,0001.11
2024-03-01 23:50:00,SystemResetWarning,0821.2,4.99,000.00,026.1,025.2,000.0,034.5,027.9,08.4,0000.0,0006.66,0002.19,0001.11
2024-03-01 23:51:00,SystemResetWarning,0821.3,4.99,000.00,026.1,025.2,000.0,034.5,027.8,08.4,0000.0,0006.50,0002.13,0001.11
2024-03-01 23:52:00,SystemResetWarning,0821.2,5.01,000.00,026.1,025.2,000.0,034.5,027.8,08.4,0000.0,0007.53,0002.16,0001.11
2024-03-01 23:53:00,SystemResetWarning,0821.2,5.01,000.00,026.1,025.2,000.0,034.5,027.8,08.4,0000.0,0007.44,0002.15,0001.10
2024-03-01 23:54:00,SystemResetWarning,0821.3,5.00,000.00,026.1,025.2,000.0,034.5,027.8,08.2,0000.0,0006.92,0002.18,0001.10
2024-03-01 23:55:00,SystemResetWarning,0821.2,5.00,000.00,026.0,025.2,000.0,034.5,027.8,08.1,0000.0,0006.12,0002.14,0001.09
2024-03-01 23:56:00,SystemResetWarning,0821.2,4.99,000.00,026.0,025.1,000.0,034.5,027.8,08.0,0000.0,0006.56,0002.18,0001.11
2024-03-01 23:57:00,SystemResetWarning,0821.2,5.00,000.00,026.0,025.1,000.0,034.5,027.8,08.1,0000.0,0007.28,0002.23,0001.12
2024-03-01 23:58:00,SystemResetWarning,0821.2,4.99,000.00,026.0,025.1,000.0,034.5,027.8,08.1,0000.0,0007.29,0002.24,0001.11
2024-03-01 23:59:00,SystemResetWarning,0821.2,4.99,000.00,026.0,025.1,000.0,034.5,027.7,08.1,0000.0,0007.22,0002.24,0001.12
